Lancaster, OH

5:23 AM EDT on October 18, 2017 (GMT -0400)
Fairfield County

Weather History for KLHQ - October, 2011

Change the Weather History Date:

Monday, October 3, 2011

  Actual Average Record
Temperature  
Mean Temperature 46 °F -  
Max Temperature 54 °F 69 °F 90 °F (1953)
Min Temperature 39 °F 44 °F 28 °F (2003)
Degree Days  
Heating Degree Days 19    
Moisture  
Dew Point 46 °F    
Average Humidity 90    
Maximum Humidity 100    
Minimum Humidity 77    
Precipitation  
Precipitation 0.18 in - - ()
Sea Level Pressure  
Sea Level Pressure 30.13 in    
Wind  
Wind Speed 4 mph (NW)    
Max Wind Speed 8 mph    
Max Gust Speed -    
Visibility 7 miles    
Events Rain    
Averages and records for this station are not official NWS values.
T = Trace of Precipitation, MM = Missing Value Source: NWS Daily Summary

Daily Weather History Graph

Daily Weather History Graph

Search for Another Location

Airport or City:

Trip Planner

Search our weather history database for the weather conditions in past years. The results will help you decide how hot, cold, wet, or windy it might be!

Date:

Astronomy

Oct. 03, 2011 Rise Set
Actual Time 7:28 AM EDT 7:10 PM EDT
Civil Twilight 7:01 AM EDT 7:37 PM EDT
Nautical Twilight 6:30 AM EDT 8:08 PM EDT
Astronomical Twilight 5:58 AM EDT 8:39 PM EDT
Moon 2:24 PM EDT (10/3) No Moon Set
Length of Visible Light 12h 35m
Length of Day
11h 41m
Waxing Crescent, 45% of the Moon is Illuminated
Oct 3
Waxing Crescent
Oct 3
First Quarter
Oct 11
Full
Oct 19
Last Quarter
Oct 26
New

Hourly Weather History & Observations

Time (EDT) Temp. Windchill Dew Point Humidity Pressure Visibility Wind Dir Wind Speed Gust Speed Precip Events Conditions
1:02 AM 46.4 °F 43.5 °F 41.0 °F 81% 30.06 in 10.0 mi NNW 5.8 mph - N/A   Mostly Cloudy
1:24 AM 46.4 °F 44.3 °F 41.0 °F 81% 30.05 in 10.0 mi NNW 4.6 mph - N/A   Overcast
1:53 AM 48.0 °F - 42.1 °F 80% 30.06 in 10.0 mi NW 3.5 mph - N/A   Overcast
3:53 AM 39.0 °F - 37.0 °F 93% 30.07 in 10.0 mi Calm Calm - N/A   Clear
4:19 AM 41.0 °F - 39.2 °F 93% 30.07 in 10.0 mi Calm Calm - N/A   Mostly Cloudy
4:50 AM 46.4 °F 42.9 °F 42.8 °F 87% 30.09 in 10.0 mi NW 6.9 mph - N/A   Overcast
4:53 AM 46.0 °F 43.9 °F 42.1 °F 86% 30.09 in 10.0 mi NW 4.6 mph - N/A   Overcast
5:53 AM 45.0 °F - 42.1 °F 90% 30.09 in 10.0 mi Calm Calm - N/A   Mostly Cloudy
6:53 AM 44.1 °F 42.5 °F 41.0 °F 89% 30.09 in 10.0 mi West 3.5 mph - N/A   Mostly Cloudy
7:53 AM 45.0 °F 42.6 °F 41.0 °F 86% 30.11 in 10.0 mi WNW 4.6 mph - N/A   Overcast
8:53 AM 45.0 °F 43.5 °F 43.0 °F 93% 30.12 in 4.0 mi West 3.5 mph - 0.05 in Rain Light Rain
9:53 AM 46.9 °F - 44.1 °F 90% 30.14 in 8.0 mi Calm Calm - 0.04 in Rain Light Rain
10:32 AM 46.4 °F 44.3 °F 44.6 °F 93% 30.14 in 2.0 mi West 4.6 mph - 0.02 in Rain Rain
10:36 AM 46.4 °F 45.2 °F 44.6 °F 93% 30.14 in 3.0 mi West 3.5 mph - 0.03 in Rain Light Rain
10:53 AM 48.0 °F - 45.0 °F 89% 30.14 in 8.0 mi WNW 3.5 mph - 0.04 in Rain Light Rain
11:53 AM 48.9 °F - 46.0 °F 90% 30.12 in 10.0 mi WSW 6.9 mph - 0.00 in   Overcast
12:53 PM 51.1 °F - 46.0 °F 83% 30.12 in 10.0 mi West 8.1 mph - 0.01 in   Overcast
2:53 PM 53.1 °F - 46.0 °F 77% 30.13 in 6.0 mi NNE 4.6 mph - 0.00 in Rain Light Rain
3:53 PM 53.1 °F - 48.0 °F 83% 30.13 in 9.0 mi Calm Calm - 0.00 in Rain Light Rain
4:32 PM 53.6 °F - 48.2 °F 82% 30.13 in 4.0 mi NNW 5.8 mph - 0.00 in Rain Light Rain
4:53 PM 52.0 °F - 50.0 °F 93% 30.14 in 3.0 mi NNW 4.6 mph - 0.01 in Rain Light Rain
5:18 PM 51.8 °F - 50.0 °F 94% 30.14 in 2.0 mi NNW 4.6 mph - 0.01 in Rain Light Rain
5:36 PM 51.8 °F - 51.8 °F 100% 30.14 in 1.8 mi NW 4.6 mph - 0.02 in Rain Light Rain
5:46 PM 51.8 °F - 50.0 °F 94% 30.14 in 2.0 mi NW 4.6 mph - 0.02 in Rain Light Rain
5:49 PM 51.8 °F - 51.8 °F 100% 30.14 in 2.5 mi NW 4.6 mph - 0.02 in Rain Light Rain
5:53 PM 52.0 °F - 51.1 °F 97% 30.15 in 4.0 mi NW 4.6 mph - 0.02 in Rain Light Rain
6:53 PM 53.1 °F - 51.1 °F 93% 30.17 in 6.0 mi WNW 3.5 mph - N/A   Overcast
7:53 PM 53.1 °F - 51.1 °F 93% 30.17 in 5.0 mi Variable 4.6 mph - 0.01 in Rain Light Rain
8:13 PM 53.6 °F - 51.8 °F 94% 30.17 in 9.0 mi NNW 3.5 mph - 0.01 in   Overcast
8:32 PM 53.6 °F - 51.8 °F 94% 30.17 in 10.0 mi Calm Calm - 0.01 in   Overcast
9:53 PM 53.1 °F - 51.1 °F 93% 30.17 in 9.0 mi Calm Calm - N/A   Overcast
10:53 PM 53.1 °F - 51.1 °F 93% 30.19 in 10.0 mi Calm Calm - N/A   Overcast
11:53 PM 53.1 °F - 51.1 °F 93% 30.19 in 9.0 mi Calm Calm - N/A   Overcast